Location: Guilderland
(42.7045°N, 73.9115°W)
Time: 04:31:39
(UTC+00:00)

Nadezhda 3 Rocket - Pass Details

Date: 24 January 2020
Orbit: 958 x 999 km, 82.9° (Epoch: 19 February)

Event Time Altitude Azimuth Distance (km) Brightness Sun altitude
Rises 22:12:47 0° 353° (N) 3,693 6.9 -3.3°
Reaches altitude 10° 22:15:18 10° 355° (N) 2,747 6.2 -3.7°
Maximum altitude 22:21:37 76° 81° (E) 1,024 4.0 -4.8°
Drops below altitude 10° 22:27:57 10° 168° (SSE) 2,753 6.5 -5.9°
Sets 22:30:29 0° 169° (S) 3,701 7.2 -6.3°
